Regional Weather Roundup
Issued by NWS

Home | Current Version | Previous Version | Graphics & Text | Print | Product List | Glossary On
Versions: 1 2 3 4 5 6 7 8 9 10 11 12 13 14 15 16 17 18 19 20 21 22 23 24 25 26 27 28
000
ASUS45 KSLC 182010
RWRUT

UTAH REGIONAL WEATHER ROUNDUP
NATIONAL WEATHER SERVICE SALT LAKE CITY UT
100 PM MST SAT FEB 18 2017

UTZ001>011-023>025-182100-

NORTHERN UTAH

CITY           SKY/WX    TMP DP  RH WIND       PRES   REMARKS
BRIGHAM CITY     N/A     49  37  62 N6        29.63F
HILL AFB       PTSUNNY   52  32  46 S15       29.62F
LOGAN          CLOUDY    52  37  56 SW8       29.63F
OGDEN          CLOUDY    53  33  46 S15       29.62F
SALT LAKE CITY CLOUDY    54  34  46 S14       29.61F
TOOELE VALLEY  CLOUDY    55  36  47 S15       29.61F
WENDOVER       CLOUDY    45  34  65 E7        29.60F
HEBER CITY     CLOUDY    46  34  61 N7        29.65F
WEST JORDAN    CLOUDY    56  43  61 S13       29.63F

$$

UTZ011>015-024>027-182100-

CENTRAL/NORTHEAST UTAH

CITY           SKY/WX    TMP DP  RH WIND       PRES   REMARKS
PROVO AIRPORT  CLOUDY    55  33  43 SE13      29.63F
MOAB/CANYONLAN LGT RAIN  46  42  86 N3        29.75F
DELTA          CLOUDY    50  32  50 CALM      29.62F
PRICE          MIX PCPN  37  37 100 SE10      29.75F WCI  30
RICHFIELD      CLOUDY    52  30  43 W5        29.65
ROOSEVELT      LGT RAIN  41  36  81 E5        29.78F
VERNAL         LGT RAIN  41  38  89 CALM      29.77F

$$

UTZ013>016-019>022-027-182100-

SOUTHERN UTAH

CITY           SKY/WX    TMP DP  RH WIND       PRES   REMARKS
BRYCE CANYON   SNOW      33  32  96 SE23G31   29.69F VSB 1/4 WCI  21
CEDAR CITY     CLOUDY    48  33  56 SE10G16   29.60F
MILFORD        CLOUDY    50  35  56 SW8       29.60F
ST GEORGE      RAIN      52  45  77 SW13      29.62S
HANKSVILLE     CLOUDY    43  39  87 SE10      29.76F
BLANDING       CLOUDY    44  38  79 NE6       29.84F

$$

REGIONAL REPORTS     COLORADO/ARIZONA

CITY           SKY/WX    TMP DP  RH WIND       PRES   REMARKS
CRAIG, CO      CLOUDY    48  31  51 E5        29.76F
GRAND JUNCTION CLOUDY    48  38  68 NW14      29.76F
RIFLE, CO      CLOUDY    54  30  40 NW9       29.73F
MONTROSE, CO   CLOUDY    53  30  41 N8        29.76F
CORTEZ, CO     CLOUDY    53  32  44 VRB7      29.75F
COLORADO CITY  LGT RAIN  50  41  71 E13       29.68F
PAGE, AZ       CLOUDY    50  35  56 NE9       29.68
GRAND CANYON   CLOUDY    41  35  79 E5        29.69F
KINGMAN, AZ    CLOUDY    54  32  43 SE21G29   29.57S
FLAGSTAFF, AZ  LGT RAIN  38  36  92 SE3       29.69F

$$

REGIONAL REPORTS    NEVADA/IDAHO/WYOMING

CITY           SKY/WX    TMP DP  RH WIND       PRES   REMARKS
LAS VEGAS, NV  LGT RAIN  53  48  83 E10       29.53F
ELY, NY        CLOUDY    42  34  73 S24G33    29.57F
ELKO, NV       CLOUDY    47  32  56 VRB7      29.53F
POCATELLO, ID  CLOUDY    50  33  52 S24G33    29.59F
BURLEY, ID     CLOUDY    51  33  50 S15       29.53F
FORT BRIDGER,  MOCLDY    37  31  76 SE3       29.74S
EVANSTON, WY   CLOUDY    39  28  64 E3        29.69F
ROCK SPRINGS,  CLOUDY    41  29  62 S22G29    29.71F
KEMMERER, WY     N/A     39  30  70 N5        29.70F

$$




USA.gov is the U.S. government's official web portal to all federal, state and local government web resources and services.